Location: Pella
(41.4080°N, 92.9160°W)
Time: 21:58:32
(UTC-06:00)

ISS - Visible Passes

Search period start: 22 November 2017 00:00
Search period end: 02 December 2017 00:00
Orbit: 402 x 407 km, 51.6° (Epoch: 23 November)

Date Brightness Start Highest point End Pass type
(mag) Time Alt. Az. Time Alt. Az. Time Alt. Az.
25 Nov -1.8 18:24:11 10° S 18:25:41 18° SSE 18:25:41 18° SSE visible
26 Nov -1.4 17:33:53 10° SE 17:34:35 10° SE 17:35:16 10° ESE visible
26 Nov -1.4 19:07:18 10° SW 19:08:32 21° SW 19:08:32 21° SW visible
27 Nov -3.5 18:15:07 10° SW 18:18:17 48° SE 18:18:36 46° ESE visible
28 Nov -2.4 17:23:20 10° SSW 17:26:04 25° SE 17:28:36 11° E visible
28 Nov -1.8 18:59:18 10° W 19:01:16 28° WNW 19:01:16 28° WNW visible
29 Nov -3.7 18:06:44 10° WSW 18:10:00 70° NW 18:11:10 36° NE visible
30 Nov -3.6 17:14:25 10° SW 17:17:39 61° SE 17:20:54 10° ENE visible
30 Nov -1.7 18:51:37 10° WNW 18:53:39 22° NW 18:53:39 22° NW visible
01 Dec -2.6 17:58:46 10° W 18:01:48 34° NNW 18:03:25 21° NNE visible
